Location: ??? ?????
(30.6482°N, 60.5850°E)
Time: 21:53:54
(UTC+00:00)

ATLAS 2AS CENTAUR RB - Pass Details

Date: 09 April 2020
Orbit: 246 x 24343 km, 12.3° (Epoch: 24 May)

Event Time Altitude Azimuth Distance (km) Brightness Sun altitude
Rises 11:07:58 0° 253° (WSW) 28,751 10.9 40.4°
Reaches altitude 10° 14:34:32 10° 258° (WSW) 15,463 9.9 -3.5°
Maximum altitude 15:15:24 32° 207° (SSW) 3,577 5.5 -12.0°
Drops below altitude 10° 15:22:16 10° 144° (SE) 2,929 4.5 -13.4°
Enters shadow 15:22:17 10° 144° (SE) 2,932 4.5 -13.4°
